Location: Newark
(52.3500°N, 175.9667°E)
Time: 14:40:35
(UTC+00:00)

Transit 2A - All Passes

Search period start: 23 April 2021 00:00
Search period end: 03 May 2021 00:00
Orbit: 602 x 957 km, 66.7° (Epoch: 22 April)

Date Brightness Start Highest point End Pass type
(mag) Time Alt. Az. Time Alt. Az. Time Alt. Az.
23 Apr - 01:23:38 10° NNW 01:27:23 27° NNE 01:31:14 10° E daylight
23 Apr - 03:06:31 10° NW 03:10:53 70° SW 03:15:30 10° SSE daylight
23 Apr - 04:51:58 10° W 04:53:15 11° WSW 04:54:34 10° WSW daylight
23 Apr - 17:52:54 10° SSE 17:56:35 23° ESE 18:00:05 10° ENE daylight
23 Apr - 19:34:49 10° SW 19:39:23 61° NW 19:43:44 10° NE daylight
23 Apr - 21:20:12 10° WNW 21:23:21 19° NNW 21:26:27 10° NNE daylight
23 Apr - 23:06:15 10° NNW 23:08:14 13° N 23:10:13 10° NNE daylight
24 Apr - 00:49:32 10° NNW 00:52:59 22° NNE 00:56:31 10° E daylight
24 Apr - 02:32:18 10° NW 02:36:43 85° NE 02:41:22 10° SE daylight
24 Apr - 04:16:32 10° WNW 04:19:19 16° WSW 04:22:10 10° SSW daylight
24 Apr - 17:19:42 10° SSE 17:22:35 16° ESE 17:25:22 10° ENE daylight
24 Apr - 19:00:32 10° SW 19:05:10 84° NW 19:09:35 10° NE daylight
24 Apr - 20:45:24 10° W 20:48:54 22° NNW 20:52:21 10° NNE daylight
24 Apr - 22:31:42 10° NNW 22:33:40 13° N 22:35:39 10° NNE daylight
25 Apr - 00:15:25 10° NNW 00:18:33 19° NNE 00:21:43 10° ENE daylight
25 Apr - 01:58:08 10° NW 02:02:31 62° NE 02:07:05 10° SE daylight
25 Apr - 03:41:47 10° WNW 03:45:18 23° WSW 03:48:59 10° SSW daylight
25 Apr - 16:47:18 10° SE 16:48:38 11° ESE 16:49:57 10° E daylight
25 Apr - 18:26:23 10° SSW 18:31:00 70° SE 18:35:22 10° NE daylight
25 Apr - 20:10:41 10° W 20:14:30 26° NNW 20:18:14 10° NNE daylight
25 Apr - 21:57:00 10° NW 21:59:08 13° N 22:01:14 10° NNE daylight
25 Apr - 23:41:17 10° NNW 23:44:05 16° NNE 23:46:53 10° ENE daylight
26 Apr - 01:24:00 10° NNW 01:28:15 46° NE 01:32:41 10° ESE daylight
26 Apr - 03:07:18 10° NW 03:11:16 32° WSW 03:15:26 10° S daylight
26 Apr - 17:52:24 10° SSW 17:56:52 49° ESE 18:01:07 10° NE daylight
26 Apr - 19:36:03 10° WSW 19:40:09 33° NW 19:44:08 10° NNE daylight
26 Apr - 21:22:12 10° NW 21:24:35 14° NNW 21:26:58 10° NNE daylight
26 Apr - 23:07:07 10° NNW 23:09:33 14° NNE 23:12:03 10° NE daylight
27 Apr - 00:49:53 10° NNW 00:53:57 35° NE 00:58:10 10° ESE daylight
27 Apr - 02:32:57 10° NW 02:37:11 46° WSW 02:41:40 10° SSE daylight
27 Apr - 17:18:35 10° S 17:22:46 34° ESE 17:26:46 10° NE daylight
27 Apr - 19:01:30 10° WSW 19:05:50 43° NW 19:10:02 10° NNE daylight
27 Apr - 20:47:22 10° NW 20:50:04 16° NNW 20:52:46 10° NNE daylight
27 Apr - 22:32:51 10° NNW 22:35:01 13° N 22:37:13 10° NE daylight
28 Apr - 00:15:47 10° NNW 00:19:36 28° NE 00:23:33 10° E daylight
28 Apr - 01:58:40 10° NW 02:03:04 65° SW 02:07:42 10° SSE daylight
28 Apr - 03:44:38 10° W 03:45:24 10° WSW 03:46:10 10° WSW daylight
28 Apr - 16:45:00 10° SSE 16:48:43 25° ESE 16:52:19 10° ENE daylight
28 Apr - 18:27:04 10° SW 18:31:34 58° NW 18:35:54 10° NE daylight
28 Apr - 20:12:32 10° WNW 20:15:35 18° NNW 20:18:37 10° NNE daylight
28 Apr - 21:58:29 10° NNW 22:00:29 13° N 22:02:30 10° NNE daylight
28 Apr - 23:41:41 10° NNW 23:45:12 23° NNE 23:48:50 10° E daylight
29 Apr - 01:24:28 10° NW 01:28:53 90° NNW 01:33:36 10° SE daylight
29 Apr - 03:08:49 10° WNW 03:11:27 15° WSW 03:14:11 10° SW daylight
29 Apr - 16:11:43 10° SSE 16:14:43 17° ESE 16:17:39 10° ENE visible
29 Apr - 17:52:46 10° SW 17:57:20 79° NW 18:01:44 10° NE daylight
29 Apr - 19:37:44 10° WNW 19:41:08 21° NNW 19:44:30 10° NNE daylight
29 Apr - 21:23:58 10° NNW 21:25:55 13° N 21:27:53 10° NNE daylight
29 Apr - 23:07:34 10° NNW 23:10:47 19° NNE 23:14:03 10° ENE daylight
30 Apr - 00:50:17 10° NW 00:54:42 66° NE 00:59:20 10° SE daylight
30 Apr - 02:34:01 10° WNW 02:37:27 22° WSW 02:41:04 10° SSW daylight
30 Apr - 15:39:05 10° SE 15:40:46 12° ESE 15:42:26 10° E visible
30 Apr - 17:18:36 10° SSW 17:23:10 75° SE 17:27:32 10° NE daylight
30 Apr - 19:02:59 10° W 19:06:43 25° NNW 19:10:23 10° NNE daylight
30 Apr - 20:49:18 10° NW 20:51:22 13° N 20:53:27 10° NNE daylight
30 Apr - 22:33:26 10° NNW 22:36:18 17° NNE 22:39:14 10° ENE daylight
01 May - 00:16:09 10° NNW 00:20:26 49° NE 00:24:58 10° ESE daylight
01 May - 01:59:30 10° NW 02:03:25 30° WSW 02:07:34 10° S daylight
01 May - 16:44:34 10° SSW 16:49:01 52° ESE 16:53:17 10° NE daylight
01 May - 18:28:20 10° W 18:32:21 31° NW 18:36:17 10° NNE daylight
01 May - 20:14:31 10° NW 20:16:50 14° NNW 20:19:09 10° NNE daylight
01 May - 21:59:16 10° NNW 22:01:49 15° NNE 22:04:22 10° NE daylight
01 May - 23:42:02 10° NNW 23:46:09 37° NE 23:50:27 10° ESE daylight
02 May - 01:25:07 10° NW 01:29:21 43° WSW 01:33:50 10° S daylight
02 May - 16:10:43 10° S 16:14:56 37° ESE 16:18:58 10° NE daylight
02 May - 17:53:46 10° WSW 17:58:02 40° NW 18:02:10 10° NNE daylight
02 May - 19:39:41 10° NW 19:42:19 15° NNW 19:44:56 10° NNE daylight
02 May - 21:25:02 10° NNW 21:27:17 14° N 21:29:32 10° NE daylight
02 May - 23:07:55 10° NNW 23:11:48 29° NE 23:15:51 10° E daylight
